Location: Rounton
(54.4000°N, 1.3500°W)
Time: 21:37:50
(UTC+01:00)

YAOGAN 20A - Pass Details

Date: 04 July 2022
Orbit: 891 x 1288 km, 63.4° (Epoch: 18 August)

Event Time Altitude Azimuth Distance (km) Brightness Sun altitude
Rises 23:19:05 0° 306° (NW) 3,759 9.2 -9.2°
Reaches altitude 10° 23:21:38 10° 310° (NW) 2,860 8.5 -9.4°
Maximum altitude 23:28:24 64° 31° (NNE) 1,238 5.6 -9.8°
Drops below altitude 10° 23:35:52 10° 113° (ESE) 3,139 7.1 -10.2°
Enters shadow 23:38:36 - 116° (ESE) 4,089 7.7 -10.3°
